DW8108 Weather Reports


time (UTC)temp
C
wind
direction
speed
KPH
gust
KPH
rain 1hr
cm
rain 24hr
cm
rain mn
cm
humidity
%
barometer
mb
20260906021546 22 0.0 11.3 0.00 0.00 0.00 91 1014.0
20260906020044 22 0.0 9.7 0.00 0.00 0.00 90 1014.0
20260906014607 22 0.0 12.9 0.00 0.00 0.00 90 1013.7
20260906013046 22 0.0 11.3 0.00 0.00 0.00 89 1013.3
20260906011540 22 0.0 14.5 0.00 0.00 0.00 89 1013.1
20260906010037 23 0.0 19.3 0.00 0.00 0.00 89 1013.3
20260906004534 23 0.0 20.9 0.00 0.00 0.00 88 1013.1
20260906003033 23 0.0 16.1 0.00 0.00 0.00 87 1013.1
20260906001532 23 0.0 22.5 0.00 0.00 0.00 87 1012.9
20260906000028 23 0.0 24.1 0.00 0.00 0.00 87 1012.6
20260905234527 23 0.0 20.9 0.00 0.00 0.00 86 1012.6
20260905233027 24 0.0 22.5 0.00 0.00 0.00 86 1012.6
20260905231526 24 0.0 20.9 0.00 0.00 0.00 84 1012.6
20260905230025 25 0.0 25.7 0.00 0.00 0.00 82 1012.5
20260905224523 26 0.0 25.7 0.00 0.00 0.00 80 1012.5
20260905223023 26 0.0 24.1 0.00 0.00 0.00 79 1012.4
20260905221522 26 0.0 29.0 0.00 0.00 0.00 78 1012.3
20260905220021 27 0.0 25.7 0.00 0.00 0.00 77 1012.2
20260905214525 28 0.0 27.4 0.00 0.00 0.00 74 1012.1
20260905213020 28 0.0 24.1 0.00 0.00 0.00 74 1012.1
20260905211532 28 0.0 20.9 0.00 0.00 0.00 73 1011.9
20260905210020 29 0.0 24.1 0.00 0.00 0.00 73 1011.9
20260905204526 30 0.0 24.1 0.00 0.00 0.00 72 1011.9
20260905203018 30 0.0 22.5 0.00 0.00 0.00 71 1011.8
20260905201517 30 0.0 22.5 0.00 0.00 0.00 71 1011.9
20260905200019 30 0.0 19.3 0.00 0.00 0.00 71 1011.9
20260905194516 30 0.0 24.1 0.00 0.00 0.00 71 1011.8
20260905193016 30 0.0 22.5 0.00 0.00 0.00 72 1011.9
20260905191515 30 0.0 25.7 0.00 0.00 0.00 72 1011.9
20260905190014 30 0.0 24.1 0.00 0.00 0.00 73 1011.9
20260905184513 31 0.0 22.5 0.00 0.00 0.00 73 1011.9
20260905183009 30 0.0 17.7 0.00 0.00 0.00 75 1011.8
20260905181508 30 0.0 22.5 0.00 0.00 0.00 77 1011.9
20260905180009 30 0.0 19.3 0.00 0.00 0.00 79 1011.9
20260905174505 30 0.0 12.9 0.00 0.00 0.00 79 1011.8
20260905173005 30 0.0 14.5 0.00 0.00 0.00 80 1011.9
20260905171502 29 0.0 12.9 0.00 0.00 0.00 82 1012.0
20260905170002 29 0.0 12.9 0.00 0.00 0.00 84 1012.2
20260905164600 29 0.0 14.5 0.00 0.00 0.00 83 1012.3
20260905163059 29 0.0 16.1 0.00 0.00 0.00 84 1012.3
20260905161604 29 0.0 12.9 0.00 0.00 0.00 84 1012.2
20260905160058 29 0.0 14.5 0.00 0.00 0.00 85 1012.3
20260905154613 29 0.0 11.3 0.00 0.00 0.00 85 1012.2
20260905153053 28 0.0 11.3 0.00 0.00 0.00 86 1012.0
20260905151600 28 0.0 12.9 0.00 0.00 0.00 85 1012.0
20260905150049 28 0.0 16.1 0.00 0.00 0.00 87 1011.9
20260905144546 28 0.0 11.3 0.00 0.00 0.00 91 1011.4
20260905143042 27 0.0 6.4 0.00 0.00 0.00 95 1011.4
20260905141538 26 0.0 8.0 0.00 0.00 0.00 96 1011.6
20260905140036 26 0.0 8.0 0.00 0.00 0.00 97 1011.9
20260905134536 26 0.0 4.8 0.00 0.00 0.00 97 1011.8
20260905133032 26 0.0 4.8 0.00 0.00 0.00 97 1011.7
20260905131528 25 0.0 0.0 0.00 0.00 0.00 97 1011.4
20260905130026 25 0.0 0.0 0.00 0.00 0.00 98 1011.4
20260905124526 24 0.0 0.0 0.00 0.00 0.00 97 1011.2
20260905123022 24 0.0 9.7 0.00 0.00 0.00 97 1011.2
20260905121525 23 0.0 3.2 0.00 0.00 0.00 97 1011.0
20260905120026 23 0.0 0.0 0.00 0.00 0.00 97 1010.7
20260905114520 23 0.0 0.0 0.00 0.00 0.00 97 1010.7
20260905113020 23 0.0 0.0 0.00 0.00 0.00 97 1010.7
20260905111521 23 0.0 0.0 0.00 0.00 0.00 97 1010.6
20260905110020 23 0.0 0.0 0.00 0.00 0.00 97 1010.5
20260905104519 23 0.0 1.6 0.00 0.00 0.00 96 1010.6
20260905103018 23 0.0 1.6 0.00 0.00 0.00 96 1010.6
20260905101522 23 0.0 1.6 0.00 0.00 0.00 96 1010.7
20260905100018 23 0.0 4.8 0.00 0.00 0.00 96 1010.7
20260905094515 23 0.0 3.2 0.00 0.00 0.00 96 1010.8
20260905093013 23 0.0 0.0 0.00 0.00 0.00 96 1010.7
20260905091514 23 0.0 0.0 0.00 0.00 0.00 96 1010.6
20260905090015 23 0.0 0.0 0.00 0.00 0.00 96 1010.8
20260905084513 23 0.0 0.0 0.00 0.00 0.00 96 1010.9
20260905083010 23 0.0 0.0 0.00 0.00 0.00 96 1010.8
20260905081519 24 0.0 0.0 0.00 0.00 0.00 95 1010.6
20260905080015 24 0.0 0.0 0.00 0.00 0.00 96 1010.6
20260905074509 25 0.0 4.8 0.00 0.00 0.00 96 1010.5
20260905073009 25 0.0 8.0 0.00 0.00 0.00 96 1010.3
20260905071507 25 0.0 8.0 0.00 0.00 0.00 96 1010.2
20260905070013 25 0.0 9.7 0.00 0.00 0.00 96 1010.2
20260905064505 23 0.0 8.0 0.00 0.00 0.00 95 1010.3
20260905063002 24 0.0 0.0 0.00 0.00 0.00 95 1010.6
20260905061502 24 0.0 0.0 0.00 0.00 0.00 95 1010.7
20260905060100 24 0.0 0.0 0.00 0.00 0.00 94 1010.6
20260905054602 25 0.0 0.0 0.00 0.00 0.00 94 1010.9
20260905053056 25 0.0 0.0 0.00 0.00 0.00 94 1011.0
20260905051553 25 0.0 4.8 0.00 0.00 0.00 94 1010.9
20260905050051 25 0.0 0.0 0.00 0.00 0.00 94 1010.9
20260905044550 25 0.0 0.0 0.00 0.00 0.00 94 1011.2
20260905043049 25 0.0 0.0 0.00 0.00 0.00 94 1011.2
20260905041555 25 0.0 0.0 0.00 0.00 0.00 93 1011.0
20260905040052 25 0.0 0.0 0.00 0.00 0.00 93 1011.1
20260905034548 25 0.0 0.0 0.00 0.00 0.00 93 1011.2
20260905033052 26 0.0 0.0 0.00 0.00 0.00 93 1011.3
20260905031550 26 0.0 1.6 0.00 0.00 0.00 92 1011.4
20260905030048 26 0.0 0.0 0.00 0.00 0.00 92 1011.5
20260905024545 26 0.0 0.0 0.00 0.00 0.00 92 1011.3
20260905023045 26 0.0 0.0 0.00 0.00 0.00 91 1011.4